Location: 22
(39.7117°N, 89.5929°W)
Time: 19:43:39
(UTC-05:00)

Hubble Space Telescope - Visible Passes

Search period start: 20 May 2024 00:00
Search period end: 30 May 2024 00:00
Orbit: 512 x 515 km, 28.5° (Epoch: 20 May)

Date Brightness Start Highest point End Pass type
(mag) Time Alt. Az. Time Alt. Az. Time Alt. Az.
20 May 2.9 04:20:08 10° S 04:20:08 10° S 04:20:22 10° S visible
26 May 2.8 21:06:44 10° S 21:07:46 11° SSE 21:08:39 10° SSE visible
27 May 2.8 20:47:25 10° S 20:48:53 12° SSE 20:50:20 10° SE visible
28 May 2.8 22:07:23 10° SW 22:08:34 14° SSW 22:08:34 14° SSW visible
29 May 2.5 21:48:31 10° SW 21:50:53 16° S 21:50:53 16° S visible
